Louisville, KY

1:04 PM EDT on July 23, 2016 (GMT -0400)
portland | | Change Station
Active Advisory: Heat Advisory

Elev 459 ft 38.27 °N, 85.78 °W | Updated 33 seconds ago

Scattered Clouds
Scattered Clouds
91.9 °F
Feels Like 104 °F
N
2.2
Wind Variable Wind from NE

Today
High -- | Low -- °F
--% Chance of Precip.
Yesterday
High -- | Low -- °F
Precip. -- in
Pressure 29.99 in
Visibility 8.0 miles
Clouds Scattered Clouds 3500 ft
Scattered Clouds 25000 ft
Heat Index 104 °F
Dew Point 76 °F
Humidity 59%
Rainfall 0.00 in
Snow Depth Not available.
6:38 AM 9:00 PM
Waning Gibbous, 84% visible
METAR KSDF 231656Z 00000KT 8SM SCT035 SCT250 31/22 A3000 RMK AO2 SLP153 T03110217
Pressure 29.99 in
Visibility 8.0 miles
Clouds Scattered Clouds 3500 ft
Scattered Clouds 25000 ft
Heat Index 104 °F
Dew Point 76 °F
Humidity 59%
Rainfall 0.00 in
Snow Depth Not available.
6:38 AM 9:00 PM
Waning Gibbous, 84% visible
METAR KSDF 231656Z 00000KT 8SM SCT035 SCT250 31/22 A3000 RMK AO2 SLP153 T03110217

10-Day Weather Forecast

Almanac

Astronomy

Jul. 23, 2016 Rise Set
Actual Time
Civil Twilight
Nautical Twilight
Astronomical Twilight
Moon
Length of Visible Light
Length of Day
Tomorrow will be .
, % of the Moon is Illuminated

Today's Extremes

State Highs State Lows

Community

WunderPhotos

Upload Photos

1,926,872 photos uploaded!

WunderBlog® & News

Nearby

Air Quality

  Air Quality AQ Index Pollutant
Not available.

Snow Depth

Station Depth Elevation

Earthquake Activity

City Distance Mag. Time & Date
Minimum magnitude displayed is 2.5.

Coastal Water Temperatures

Place Temperature

Stations

Nearby Weather Stations

Station Location Temp. Windchill Dew Point Humidity Wind Precip. Elev Updated Type
                   

Watches & Warnings

Heat Advisory
Issued: 9:01 AM CDT Jul. 23, 2016 – National Weather Service

... Heat advisory remains in effect until 8 PM EDT /7 PM CDT/ this
evening...

* temperature... high temperatures in the afternoon will warm into
the lower to middle 90s. These temperatures combined with
dewpoints in the lower to middle 70s will produce heat index
readings in the 100 to 105 degree range this afternoon.

Precautionary/preparedness actions...

Take extra precautions... if you work or spend time outside. When
possible... reschedule strenuous activities to early morning or
evening. Know the signs and symptoms of heat exhaustion and heat
stroke. Wear light weight and loose fitting clothing when
possible and drink plenty of water.



Rjs